{"data":{"norad_id":60182,"epoch":"2026-05-25T05:32:35.364768Z","epoch_age_seconds":50978,"freshness":"FRESH","line1":"1 60182U 24123A   26145.23096487  .00001256  00000+0  17508-3 0  9993","line2":"2 60182  97.9231 242.7277 0001618  96.6745 263.4651 14.79474323102480","mean_motion":14.79474323,"eccentricity":0.0001618,"inclination_deg":97.9231,"raan_deg":242.7277,"arg_perigee_deg":96.6745,"mean_anomaly_deg":263.4651,"bstar":0.00017508,"rev_number":10248,"period_min":97.331868327396,"perigee_km":629.84985710483,"apogee_km":632.11800863871,"semimajor_km":7009.1209328718,"source":"CELESTRAK","updated_at":"2026-05-25T13:38:12.836751Z"}}